Flag for Germany Weather past 2 weeks in Lutherstadt Eisleben, Saxony-Anhalt, Germany

Now
62 °F

Overcast.


Feels Like: 62 °F
Forecast: 47 / 65 °F
Wind: 2 mph from South

Location: Leipzig-Schkeuditz

Current Time: Sep 3, 2015 at 3:51:58 PM

Latest Report: Sep 3, 2015 at 3:00 PM


Visibility: 16 mi

Pressure: 29.94 "Hg

Humidity: 79%

Dew point: 55 °F

Location of Lutherstadt EislebenLocation

Historic Weather in Lutherstadt Eisleben — Graph

°F

Lutherstadt Eisleben temperature yesterday

Maximum temperature yesterday: 70 °F (at 6:00 PM)
Minimum temperature yesterday: 52 °F (at 7:00 AM)
Average temperature yesterday: 60 °F

Past Weeks' High & Low Weather Summary

 TemperatureHumidityPressure
High92 °F (Aug 31, 4:00 PM)98% (Aug 29, 8:00 AM)30.30 "Hg (Aug 29, 8:00 AM)
Low52 °F (Sep 2, 7:00 AM)27% (Aug 22, 5:00 PM)29.68 "Hg (Aug 24, 7:00 PM)
Average67 °F70%30.02 "Hg
* Reported Aug 19 2:00 PM — Sep 3 2:00 PM, Lutherstadt Eisleben, Weather by CustomWeather, © 2015

Note: Actual official high and low records may vary slightly from our data, if they occured in-between our weather recording intervals... More about our weather records

Advertising

Lutherstadt Eisleben weather history for previous 24 hours

 ConditionsComfort  
Time TempWeatherWind HumidityBarometerVisibility
2:00 PM
Thu, Sep 3
62 °FOvercast.3 mph85%29.94 "Hg14 mi
1:00 PM61 °FOvercast.3 mph84%29.96 "Hg11 mi
12:00 PM61 °FLow clouds.2 mph86%29.96 "Hg9 mi
10:00 AM57 °FLow clouds.2 mph93%29.97 "Hg7 mi
9:00 AM56 °FLight rain. Low clouds.2 mph94%29.96 "Hg6 mi
8:00 AM57 °FLow clouds.3 mph90%29.94 "Hg17 mi
7:00 AM55 °FRain showers. Low clouds.7 mph94%29.97 "Hg2 mi
5:00 AM55 °FOvercast.1 mph90%29.96 "Hg34 mi
4:00 AM57 °FOvercast.1 mph83%29.97 "Hg34 mi
3:00 AM56 °FOvercast.2 mph86%29.98 "Hg34 mi
2:00 AM58 °FPassing clouds.2 mph76%29.98 "Hg37 mi
1:00 AM57 °FPassing clouds.2 mph80%29.99 "Hg37 mi
11:00 PM
Wed, Sep 2
57 °FPassing clouds.2 mph72%30.00 "Hg37 mi
10:00 PM59 °FPassing clouds.2 mph71%30.00 "Hg37 mi
9:00 PM61 °FPassing clouds.2 mph64%30.00 "Hg37 mi
8:00 PM64 °FPassing clouds.1 mph55%29.99 "Hg37 mi
7:00 PM68 °FScattered clouds.2 mph46%29.99 "Hg37 mi
6:00 PM70 °FScattered clouds.1 mph44%29.98 "Hg37 mi
4:00 PM68 °FScattered clouds.3 mph46%30.00 "Hg37 mi
3:00 PM67 °FScattered clouds.2 mph50%30.01 "Hg37 mi
Weather by CustomWeather, © 2015

See weather overviewHow to use our weather pages